User: anonymous
Location: Ostrava
(49.8330°N, 18.2830°E)
Time: 03:42:41
(UTC+02:00)
Language:

NOAA 19 - Orbit

View from above orbital plane
View from above orbital plane
View from above satellite
View from above satellite

Ground track
Ground track

The orbit data is extracted from the following two-line orbital elements,

1 33591U 09005A   14212.44300264  .00000047  00000-0  50189-4 0  3215
2 33591 098.9464 157.3533 0013910 359.7626 144.0222 14.11742659282234
Epoch (UTC): 31 July 2014 10:37:55
Eccentricity: 0.0013910
inclination: 98.9464°
perigee height: 843 km
apogee height: 863 km
right ascension of ascending node: 157.3533°
argument of perigee: 359.7626°
revolutions per day: 14.11742659
mean anomaly at epoch: 144.0222°
orbit number at epoch: 28223

The dashed part of the orbit path shows where the satellite is in the earth's shadow,  

DLR